TimeEDT,TemperatureF,Dew PointF,Humidity,Sea Level PressureIn,VisibilityMPH,Wind Direction,Wind SpeedMPH,Gust SpeedMPH,PrecipitationIn,Events,Conditions,WindDirDegrees,DateUTC
12:51 AM,57.9,50.0,75,30.07,10.0,Calm,Calm,-,N/A,,Mostly Cloudy,0,2012-10-24 04:51:00
1:51 AM,60.1,48.9,67,30.08,10.0,WNW,3.5,-,N/A,,Mostly Cloudy,290,2012-10-24 05:51:00
2:51 AM,57.9,51.1,78,30.09,10.0,East,3.5,-,0.00,,Overcast,90,2012-10-24 06:51:00
3:51 AM,59.0,51.1,75,30.08,10.0,Calm,Calm,-,N/A,,Mostly Cloudy,0,2012-10-24 07:51:00
4:51 AM,60.1,51.1,72,30.11,10.0,Calm,Calm,-,N/A,,Overcast,0,2012-10-24 08:51:00
5:51 AM,57.9,54.0,87,30.13,10.0,Calm,Calm,-,0.01,,Overcast,0,2012-10-24 09:51:00
6:51 AM,59.0,55.0,87,30.14,10.0,Calm,Calm,-,0.02,,Overcast,0,2012-10-24 10:51:00
7:51 AM,57.0,54.0,89,30.16,10.0,Calm,Calm,-,N/A,,Mostly Cloudy,0,2012-10-24 11:51:00
8:51 AM,57.2,55.4,94,30.18,10.0,South,3.5,-,N/A,,Overcast,190,2012-10-24 12:51:00
9:51 AM,62.1,55.0,78,30.17,10.0,South,4.6,-,N/A,,Overcast,190,2012-10-24 13:51:00
10:51 AM,64.0,55.9,75,30.17,10.0,South,4.6,-,N/A,,Scattered Clouds,180,2012-10-24 14:51:00
11:51 AM,66.9,55.9,68,30.17,10.0,Calm,Calm,-,0.00,,Mostly Cloudy,0,2012-10-24 15:51:00
12:51 PM,73.9,54.0,50,30.14,10.0,Calm,Calm,-,N/A,,Clear,0,2012-10-24 16:51:00
1:51 PM,75.2,53.6,47,30.12,10.0,Variable,3.5,-,N/A,,Clear,0,2012-10-24 17:51:00
2:51 PM,78.1,53.1,42,30.08,10.0,South,5.8,-,N/A,,Clear,190,2012-10-24 18:51:00
3:51 PM,79.0,50.0,36,30.06,10.0,South,5.8,-,N/A,,Clear,180,2012-10-24 19:51:00
4:51 PM,79.0,48.9,35,30.06,10.0,SSE,5.8,-,N/A,,Clear,160,2012-10-24 20:51:00
5:51 PM,77.0,48.0,36,30.06,10.0,SSE,3.5,-,N/A,,Clear,150,2012-10-24 21:51:00
6:51 PM,75.0,46.9,37,30.06,10.0,SSE,3.5,-,N/A,,Clear,160,2012-10-24 22:51:00
7:51 PM,69.1,48.0,47,30.06,10.0,East,3.5,-,N/A,,Clear,100,2012-10-24 23:51:00
8:51 PM,68.0,48.0,49,30.07,10.0,Calm,Calm,-,N/A,,Clear,0,2012-10-25 00:51:00
9:51 PM,63.0,50.0,63,30.07,10.0,Calm,Calm,-,N/A,,Clear,0,2012-10-25 01:51:00
10:51 PM,59.0,50.0,72,30.07,10.0,Calm,Calm,-,N/A,,Clear,0,2012-10-25 02:51:00
11:51 PM,57.9,50.0,75,30.07,10.0,East,3.5,-,N/A,,Clear,90,2012-10-25 03:51:00